DELTA 1 DEB, 29187

Orbit data source: Space-Track

DELTA 1 DEB, 29187 is space debris in LEO originally from a launch on Thu, 11 Jan 1968 UTC launched from the Air Force Western Test Range (AFWTR). Debris objects in space refer to the collection of defunct objects orbiting the Earth. Examples of debris include non-operational satellites, rocket bodies, and fragments generated from explosions, collisions, or faulty payload assembly.

Loading next visibility...
Identifier
29187, 1968-002L
Orbit
LEO
Last TLE update
4 months ago
Origin
Manufacturer
Unknown
Mission
Spacecraft
Bus & Motor
Unknown
Mass
Unknown
Launch date (UTC)
1968-01-11 (57 years ago)
Launch vehicle
Unknown
Launch site
Air Force Western Test Range (AFWTR)
Object type
Payload
Rocket body
Debris
Shape & HBR
Unknown
Radar Cross Section
Small (<0.1 m²)

Expand to show TLE details & history

TLE from 4 months ago
0 DELTA 1 DEB
1 29187U 68002L   25061.03465666  .00000169  00000-0  76576-3 0  9993
2 29187 105.8033 347.6362 0297201 281.0726  94.7274 12.91092077541176
Epoch: 2025-03-02T00:49Z
TLE epoch observation values (Epoch: 2025-03-02T00:49:54.335Z)
Latitude
18.43017°
Longitude
169.70221°
Altitude
1,324.63 km
Speed
7.185 km/s
True Right ascension
22h 49m 00s
True Declination
18° 20' 05"
Sunlit
Object was in daylight at epoch
Visualization orbit readout
Latitude
-70.14422°
Longitude
38.77619°
Altitude
1,535.204 km
Speed
6.999 km/s
Apparent Right ascension
11h 16m 59s
Apparent Declination
-60° 18' 13"
Sunlit
Object is in daylight
Visualization observer readout
Local Sidereal Time
21:50:28
Azimuth
206.22° SW
Elevation
-65.589°
Doppler factor
1
Orbital elements
Apogee altitude
1,523.009 km
Perigee altitude
1,066.919 km
Semi-major axis
7,673.101 km
Eccentricity
0.02972
Inclination
105.8033°
RAAN
347.6362°
Arg. of periapsis
281.0726°
True anomaly
Unknown
Mean anomaly
94.7274°
Eccentric anomaly
Unknown
Mean motion
3.22914 °/min
Orbital period
111.48 mins
BSTAR
0.00076576
Loading maneuver chart data...
Loading SW <> Apogee altitude chart data...
Loading historical data...
Loading historical data...
Loading historical data...
Loading historical data...
Loading historical data...
Loading historical data...
Loading historical data...

DELTA 1 DEB Visibility forecast

Observer location: undefined°, undefined°

Span
Click to sort rows by Start time (UTC) header in descending order
Start Az.
Max El. time (UTC)
Max El. Az.
Max El.
End time (UTC)
End Az.
13 mins2025-07-01 11:12:03.984Z33.606° NE2025-07-01 11:18:03.984Z96.343° ESE37.447°2025-07-01 11:25:03.984Z182.187° SSW
10 mins2025-07-01 13:03:03.984Z356.015° N2025-07-01 13:07:03.984Z308.876° NW27.789°2025-07-01 13:13:03.984Z246.501° WSW
5 mins2025-07-01 20:09:03.984Z64.367° ENE2025-07-01 20:11:03.984Z43.869° NE14.874°2025-07-01 20:14:03.984Z15.148° NNE
11 mins2025-07-01 21:54:03.984Z148.774° SSE2025-07-01 21:59:03.984Z54.275° ENE44.471°2025-07-01 22:05:03.984Z340.121° N
6 mins2025-07-01 23:46:03.984Z234.836° WSW2025-07-01 23:48:03.984Z254.449° W16.075°2025-07-01 23:52:03.984Z294.013° NW
|